When you browse on this site, cookies collect data to enhance your experience and personalize the content and advertising you see.
Visit our Privacy Policy to learn more. By continuing to use the site, you agree to this use of cookies and data.
  • Em Portugal
  • Lista de países
  • Para 7 dias
  • Temperatura da água
  • Mapa do tempo
  • Widgets de tempo
  • user-avatar
    Iniciar Sessão

    Previsão horária em Newcastle

    Hoje, 20 Novembro, Quarta-feira

    Tempo Temperatura Precipitação Vento Pressão Humidade
    00:00 +21°C° 0 mm 5 m/s 759 mmHg 71%
    01:00 +21°C° 0 mm 6 m/s 759 mmHg 83%
    02:00 +21°C° 0 mm 6 m/s 759 mmHg 82%
    03:00 +20°C° 0 mm 6 m/s 759 mmHg 81%
    04:00 +20°C° 0 mm 5 m/s 760 mmHg 79%
    05:00 +20°C° 0 mm 5 m/s 760 mmHg 78%
    06:00 +20°C° 0 mm 5 m/s 761 mmHg 77%
    07:00 +20°C° 0 mm 5 m/s 761 mmHg 77%
    08:00 +21°C° 0 mm 5 m/s 761 mmHg 73%
    09:00 +22°C° 0 mm 4 m/s 761 mmHg 70%
    10:00 +23°C° 0 mm 4 m/s 761 mmHg 64%
    11:00 +25°C° 0 mm 4 m/s 761 mmHg 61%
    12:00 +25°C° 0 mm 4 m/s 761 mmHg 58%
    13:00 +26°C° 0 mm 4 m/s 760 mmHg 55%
    14:00 +26°C° 0 mm 4 m/s 760 mmHg 59%
    15:00 +25°C° 0 mm 4 m/s 760 mmHg 62%
    16:00 +23°C° 0 mm 4 m/s 760 mmHg 66%
    17:00 +22°C° 0 mm 4 m/s 760 mmHg 75%
    18:00 +20°C° 0 mm 3 m/s 761 mmHg 85%
    19:00 +19°C° 0 mm 2 m/s 762 mmHg 94%
    20:00 +19°C° 0 mm 2 m/s 762 mmHg 95%
    21:00 +19°C° 0 mm 1 m/s 762 mmHg 96%
    22:00 +19°C° 0 mm 1 m/s 762 mmHg 97%
    23:00 +19°C° 0 mm 1 m/s 762 mmHg 97%

    Amanhã, 21 Novembro, Quinta-feira

    Tempo Temperatura Precipitação Vento Pressão Humidade
    00:00 +19°C° 0 mm 1 m/s 762 mmHg 97%
    01:00 +18°C° 0 mm 1 m/s 761 mmHg 97%
    02:00 +18°C° 0 mm 1 m/s 761 mmHg 97%
    03:00 +18°C° 0 mm 1 m/s 761 mmHg 97%
    04:00 +18°C° 0 mm 1 m/s 761 mmHg 97%
    05:00 +19°C° 0 mm 1 m/s 761 mmHg 92%
    06:00 +21°C° 0 mm 1 m/s 761 mmHg 87%
    07:00 +22°C° 0 mm 1 m/s 761 mmHg 82%
    08:00 +25°C° 0 mm 1 m/s 761 mmHg 69%
    09:00 +28°C° 0 mm 2 m/s 760 mmHg 57%
    10:00 +30°C° 0 mm 3 m/s 760 mmHg 45%
    11:00 +33°C° 0 mm 4 m/s 759 mmHg 42%
    12:00 +34°C° 0 mm 5 m/s 759 mmHg 40%
    13:00 +35°C° 0 mm 6 m/s 758 mmHg 37%
    14:00 +34°C° 0 mm 7 m/s 757 mmHg 40%
    15:00 +34°C° 0 mm 8 m/s 757 mmHg 43%
    16:00 +33°C° 0 mm 9 m/s 756 mmHg 46%
    17:00 +31°C° 0 mm 8 m/s 756 mmHg 51%
    18:00 +28°C° 0 mm 7 m/s 757 mmHg 56%
    19:00 +27°C° 0 mm 6 m/s 757 mmHg 61%
    20:00 +24°C° 0 mm 6 m/s 757 mmHg 64%
    21:00 +23°C° 0 mm 5 m/s 758 mmHg 66%
    22:00 +22°C° 0 mm 5 m/s 758 mmHg 69%
    23:00 +21°C° 0 mm 4 m/s 758 mmHg 72%

    Depois de amanhã, 22 Novembro, Sexta-feira

    Tempo Temperatura Precipitação Vento Pressão Humidade
    00:00 +21°C° 0 mm 4 m/s 757 mmHg 74%
    01:00 +20°C° 0 mm 3 m/s 757 mmHg 77%
    02:00 +21°C° 0 mm 3 m/s 757 mmHg 72%
    03:00 +21°C° 0 mm 3 m/s 757 mmHg 66%
    04:00 +22°C° 0 mm 3 m/s 757 mmHg 60%
    05:00 +25°C° 0 mm 3 m/s 758 mmHg 53%
    06:00 +27°C° 0 mm 4 m/s 758 mmHg 45%
    07:00 +30°C° 0 mm 5 m/s 758 mmHg 37%
    08:00 +33°C° 0 mm 4 m/s 758 mmHg 34%
    09:00 +35°C° 0 mm 3 m/s 758 mmHg 30%
    10:00 +37°C° 0 mm 3 m/s 758 mmHg 27%
    11:00 +35°C° 0 mm 3 m/s 758 mmHg 34%
    12:00 +33°C° 0 mm 4 m/s 758 mmHg 42%
    13:00 +30°C° 0 mm 4 m/s 758 mmHg 50%
    14:00 +29°C° 0.2 mm 4 m/s 758 mmHg 55%
    15:00 +28°C° 0.2 mm 5 m/s 758 mmHg 60%
    16:00 +27°C° 0.2 mm 5 m/s 758 mmHg 66%
    17:00 +25°C° 2.4 mm 4 m/s 759 mmHg 75%
    18:00 +22°C° 2.4 mm 3 m/s 759 mmHg 85%
    19:00 +21°C° 2.4 mm 2 m/s 760 mmHg 95%
    20:00 +20°C° 0.2 mm 2 m/s 760 mmHg 95%
    21:00 +20°C° 0.2 mm 2 m/s 760 mmHg 95%
    22:00 +20°C° 0.2 mm 3 m/s 760 mmHg 96%
    23:00 +20°C° 0.3 mm 3 m/s 760 mmHg 96%

    23 Novembro, Sábado

    Tempo Temperatura Precipitação Vento Pressão Humidade
    00:00 +20°C° 0.3 mm 3 m/s 759 mmHg 96%
    01:00 +20°C° 0.3 mm 2 m/s 759 mmHg 96%
    02:00 +20°C° 0.1 mm 2 m/s 759 mmHg 96%
    03:00 +20°C° 0.1 mm 2 m/s 759 mmHg 96%
    04:00 +21°C° 0.1 mm 1 m/s 758 mmHg 97%
    05:00 +21°C° 0 mm 2 m/s 759 mmHg 93%
    06:00 +23°C° 0 mm 2 m/s 759 mmHg 89%
    07:00 +24°C° 0 mm 2 m/s 759 mmHg 86%
    08:00 +26°C° 0 mm 2 m/s 759 mmHg 74%
    09:00 +29°C° 0 mm 3 m/s 759 mmHg 62%
    10:00 +31°C° 0 mm 3 m/s 759 mmHg 50%
    11:00 +31°C° 0 mm 3 m/s 759 mmHg 51%
    12:00 +31°C° 0 mm 3 m/s 758 mmHg 53%
    13:00 +30°C° 0 mm 4 m/s 758 mmHg 55%
    14:00 +30°C° 0.1 mm 4 m/s 758 mmHg 58%
    15:00 +29°C° 0.1 mm 4 m/s 758 mmHg 62%
    16:00 +28°C° 0.1 mm 4 m/s 758 mmHg 66%
    17:00 +26°C° 1.5 mm 4 m/s 758 mmHg 75%
    18:00 +23°C° 1.5 mm 4 m/s 759 mmHg 83%
    19:00 +22°C° 1.5 mm 4 m/s 760 mmHg 92%
    20:00 +21°C° 1 mm 4 m/s 760 mmHg 94%
    21:00 +21°C° 1 mm 4 m/s 761 mmHg 96%
    22:00 +21°C° 1 mm 5 m/s 762 mmHg 97%
    23:00 +21°C° 0 mm 5 m/s 761 mmHg 96%

    24 Novembro, Domingo

    Tempo Temperatura Precipitação Vento Pressão Humidade
    00:00 +20°C° 0 mm 5 m/s 761 mmHg 96%
    01:00 +20°C° 0 mm 6 m/s 761 mmHg 95%
    02:00 +20°C° 0.2 mm 5 m/s 761 mmHg 95%
    03:00 +20°C° 0.2 mm 5 m/s 761 mmHg 95%
    04:00 +19°C° 0.2 mm 5 m/s 761 mmHg 95%
    05:00 +19°C° 0.3 mm 5 m/s 762 mmHg 95%
    06:00 +19°C° 0.3 mm 5 m/s 762 mmHg 94%
    07:00 +17°C° 0.3 mm 5 m/s 763 mmHg 94%
    08:00 +19°C° 0.1 mm 5 m/s 763 mmHg 89%
    09:00 +20°C° 0.1 mm 5 m/s 763 mmHg 84%
    10:00 +21°C° 0.1 mm 5 m/s 763 mmHg 79%
    11:00 +22°C° 0 mm 5 m/s 762 mmHg 75%
    12:00 +22°C° 0 mm 5 m/s 762 mmHg 72%
    13:00 +23°C° 0 mm 5 m/s 761 mmHg 68%
    14:00 +23°C° 0 mm 4 m/s 761 mmHg 71%
    15:00 +23°C° 0 mm 4 m/s 760 mmHg 73%
    16:00 +22°C° 0 mm 3 m/s 760 mmHg 75%
    17:00 +21°C° 0 mm 3 m/s 760 mmHg 81%
    18:00 +21°C° 0 mm 2 m/s 761 mmHg 86%
    19:00 +20°C° 0 mm 2 m/s 761 mmHg 92%
    20:00 +21°C° 0.1 mm 1 m/s 761 mmHg 93%
    21:00 +20°C° 0.1 mm 1 m/s 761 mmHg 95%
    22:00 +20°C° 0.1 mm 1 m/s 762 mmHg 97%
    23:00 +20°C° 0 mm 1 m/s 761 mmHg 96%

    25 Novembro, Segunda-feira

    Tempo Temperatura Precipitação Vento Pressão Humidade
    00:00 +20°C° 0 mm 1 m/s 761 mmHg 96%
    01:00 +21°C° 0 mm 1 m/s 760 mmHg 95%
    02:00 +20°C° 0 mm 1 m/s 760 mmHg 96%
    03:00 +20°C° 0 mm 1 m/s 760 mmHg 97%
    04:00 +19°C° 0 mm 2 m/s 760 mmHg 98%
    05:00 +21°C° 0 mm 1 m/s 760 mmHg 94%
    06:00 +22°C° 0 mm 1 m/s 760 mmHg 91%
    07:00 +23°C° 0 mm 1 m/s 761 mmHg 87%
    08:00 +25°C° 0 mm 1 m/s 760 mmHg 78%
    09:00 +27°C° 0 mm 1 m/s 760 mmHg 68%
    10:00 +29°C° 0 mm 1 m/s 760 mmHg 59%
    11:00 +30°C° 0 mm 2 m/s 759 mmHg 53%
    12:00 +33°C° 0 mm 3 m/s 758 mmHg 48%
    13:00 +34°C° 0 mm 4 m/s 757 mmHg 42%
    14:00 +33°C° 0.1 mm 5 m/s 757 mmHg 45%
    15:00 +33°C° 0.1 mm 6 m/s 756 mmHg 47%
    16:00 +32°C° 0.1 mm 8 m/s 756 mmHg 49%
    17:00 +28°C° 1.3 mm 6 m/s 756 mmHg 62%
    18:00 +24°C° 1.3 mm 3 m/s 757 mmHg 76%
    19:00 +21°C° 1.3 mm 1 m/s 758 mmHg 89%
    20:00 +20°C° 0.9 mm 2 m/s 758 mmHg 91%
    21:00 +19°C° 0.9 mm 2 m/s 758 mmHg 93%
    22:00 +19°C° 0.9 mm 2 m/s 759 mmHg 95%
    23:00 +19°C° 0 mm 2 m/s 758 mmHg 95%
    Mostrar mais